Location: Monteux
(44.0348°N, 4.9972°E)
Time: 10:25:19
(UTC+00:00)

Tiangong - Visible Passes

Search period start: 26 September 2021 00:00
Search period end: 06 October 2021 00:00
Orbit: 382 x 385 km, 41.5° (Epoch: 26 September)

Date Brightness Start Highest point End Pass type
(mag) Time Alt. Az. Time Alt. Az. Time Alt. Az.
26 Sep 3.8 04:00:19 10° S 04:01:26 11° SSE 04:02:34 10° SE visible
27 Sep 2.8 04:35:19 11° SW 04:37:55 26° SSE 04:40:37 10° E visible
28 Sep 3.3 03:38:24 18° SSE 03:38:24 18° SSE 03:40:24 10° ESE visible
29 Sep 2.1 04:13:37 26° SSW 04:14:43 35° SSE 04:17:40 10° E visible
30 Sep 3.8 03:16:36 17° ESE 03:16:36 17° ESE 03:17:37 10° E visible
30 Sep 1.5 04:48:48 13° WSW 04:51:26 52° S 04:54:31 10° E visible
01 Oct 1.8 03:51:45 44° SSE 03:51:45 44° SSE 03:54:35 10° E visible
02 Oct 1.4 04:26:53 28° WSW 04:28:16 53° S 04:31:22 10° ESE visible
03 Oct 3.1 03:29:50 26° ESE 03:29:50 26° ESE 03:31:27 10° E visible
03 Oct 1.9 05:02:02 10° W 05:04:57 39° SSW 05:07:56 10° ESE visible
04 Oct 1.4 04:05:00 48° SSW 04:05:03 48° S 04:08:07 10° ESE visible
05 Oct 4.4 03:08:00 12° ESE 03:08:00 12° ESE 03:08:14 10° ESE visible
05 Oct 2.3 04:40:13 20° WSW 04:41:41 29° SSW 04:44:28 10° SE visible
